Lancaster, OH

1:53 PM EDT on July 22, 2017 (GMT -0400)
Fairfield County

Weather History for KLHQ - November, 2011

Change the Weather History Date:

Sunday, November 20, 2011

  Actual Average Record
Temperature  
Mean Temperature 55 °F -  
Max Temperature 62 °F 52 °F 74 °F (1985)
Min Temperature 48 °F 32 °F 15 °F (1969)
Degree Days  
Heating Degree Days 10    
Growing Degree Days 5 (Base 50)    
Moisture  
Dew Point 52 °F    
Average Humidity 88    
Maximum Humidity 100    
Minimum Humidity 58    
Precipitation  
Precipitation 0.33 in - - ()
Sea Level Pressure  
Sea Level Pressure 30.16 in    
Wind  
Wind Speed 10 mph (WSW)    
Max Wind Speed 20 mph    
Max Gust Speed 30 mph    
Visibility 6 miles    
Events Rain    
Averages and records for this station are not official NWS values.
T = Trace of Precipitation, MM = Missing Value Source: NWS Daily Summary

Daily Weather History Graph

Daily Weather History Graph

Search for Another Location

Airport or City:

Trip Planner

Search our weather history database for the weather conditions in past years. The results will help you decide how hot, cold, wet, or windy it might be!

Date:

Astronomy

Nov. 20, 2011 Rise Set
Actual Time 7:20 AM EST 5:11 PM EST
Civil Twilight 6:51 AM EST 5:40 PM EST
Nautical Twilight 6:18 AM EST 6:13 PM EST
Astronomical Twilight 5:46 AM EST 6:45 PM EST
Moon 1:48 AM EST (11/20) 1:59 PM EST (11/20)
Length of Visible Light 10h 49m
Length of Day
9h 50m
Waning Crescent, 27% of the Moon is Illuminated
Nov 20
Waning Crescent
Nov 25
New
Dec 2
First Quarter
Dec 10
Full
Dec 17
Last Quarter

Hourly Weather History & Observations

Time (EST) Temp. Dew Point Humidity Pressure Visibility Wind Dir Wind Speed Gust Speed Precip Events Conditions
12:53 AM 62.1 °F 46.9 °F 58% 30.06 in 10.0 mi SW 19.6 mph 29.9 mph N/A   Overcast
1:53 AM 60.1 °F 46.9 °F 62% 30.07 in 10.0 mi SW 13.8 mph 24.2 mph N/A   Overcast
2:53 AM 60.1 °F 48.0 °F 64% 30.09 in 10.0 mi SW 15.0 mph 23.0 mph N/A   Overcast
3:53 AM 59.0 °F 48.0 °F 67% 30.09 in 10.0 mi SW 16.1 mph 23.0 mph N/A   Overcast
4:53 AM 57.0 °F 48.9 °F 74% 30.10 in 10.0 mi SW 11.5 mph 23.0 mph N/A   Partly Cloudy
5:53 AM 57.9 °F 51.1 °F 78% 30.12 in 10.0 mi SW 13.8 mph 23.0 mph N/A   Mostly Cloudy
6:53 AM 57.9 °F 51.1 °F 78% 30.13 in 10.0 mi SW 13.8 mph 21.9 mph N/A   Overcast
7:48 AM 57.2 °F 51.8 °F 82% 30.15 in 9.0 mi SW 10.4 mph 18.4 mph 0.00 in Rain Light Rain
7:53 AM 57.9 °F 52.0 °F 81% 30.15 in 7.0 mi SW 11.5 mph 19.6 mph 0.00 in Rain Light Rain
9:53 AM 57.9 °F 53.1 °F 84% 30.18 in 10.0 mi SW 11.5 mph 17.3 mph N/A   Overcast
10:03 AM 59.0 °F 53.6 °F 82% 30.18 in 10.0 mi SW 12.7 mph 19.6 mph N/A   Overcast
10:53 AM 59.0 °F 53.1 °F 81% 30.19 in 10.0 mi SW 11.5 mph 20.7 mph N/A   Overcast
11:53 AM 60.1 °F 54.0 °F 80% 30.18 in 10.0 mi WSW 8.1 mph - N/A   Overcast
12:35 PM 60.8 °F 55.4 °F 82% 30.17 in 10.0 mi WSW 11.5 mph - N/A   Mostly Cloudy
12:48 PM 60.8 °F 55.4 °F 82% 30.16 in 10.0 mi WSW 9.2 mph - N/A   Overcast
12:53 PM 61.0 °F 55.0 °F 81% 30.16 in 10.0 mi SW 11.5 mph - N/A   Overcast
1:53 PM 60.1 °F 54.0 °F 80% 30.15 in 10.0 mi SW 6.9 mph - N/A   Overcast
2:39 PM 57.2 °F 55.4 °F 94% 30.14 in 5.0 mi SSW 5.8 mph - N/A   Overcast
2:53 PM 57.9 °F 55.9 °F 93% 30.14 in 4.0 mi SSW 6.9 mph - 0.00 in Rain Light Rain
3:05 PM 57.2 °F 55.4 °F 94% 30.14 in 2.5 mi SSW 4.6 mph - 0.00 in Rain Light Rain
3:14 PM 57.2 °F 55.4 °F 94% 30.14 in 1.8 mi SSW 3.5 mph - 0.02 in Rain Light Rain
3:31 PM 57.2 °F 55.4 °F 94% 30.14 in 1.2 mi SSW 3.5 mph - 0.10 in Rain Heavy Rain
3:41 PM 57.2 °F 55.4 °F 94% 30.15 in 2.0 mi Calm Calm - 0.11 in Rain Light Rain
3:53 PM 57.0 °F 55.9 °F 96% 30.15 in 2.5 mi SW 3.5 mph - 0.12 in Rain Light Rain
4:00 PM 57.2 °F 55.4 °F 94% 30.15 in 2.0 mi Calm Calm - 0.01 in Rain Light Rain
4:16 PM 57.2 °F 55.4 °F 94% 30.16 in 3.0 mi WSW 3.5 mph - 0.03 in Rain Light Rain
4:33 PM 57.2 °F 55.4 °F 94% 30.15 in 2.5 mi Calm Calm - 0.05 in Rain Light Rain
4:40 PM 57.2 °F 55.4 °F 94% 30.15 in 3.0 mi Calm Calm - 0.05 in Rain Light Rain
4:53 PM 57.0 °F 55.9 °F 96% 30.15 in 4.0 mi SSW 3.5 mph - 0.05 in Rain Light Rain
5:53 PM 57.0 °F 55.9 °F 96% 30.15 in 4.0 mi South 3.5 mph - 0.03 in Rain Light Rain
6:02 PM 57.2 °F 55.4 °F 94% 30.16 in 4.0 mi South 3.5 mph - 0.01 in Rain Light Rain
6:33 PM 57.2 °F 55.4 °F 94% 30.16 in 3.0 mi Calm Calm - 0.04 in Rain Rain
7:17 PM 55.4 °F 55.4 °F 100% 30.17 in 2.5 mi Calm Calm - 0.03 in Rain Rain
7:22 PM 55.4 °F 55.4 °F 100% 30.17 in 3.0 mi Calm Calm - 0.03 in Rain Light Rain
7:30 PM 55.4 °F 55.4 °F 100% 30.17 in 3.0 mi NW 5.8 mph - 0.04 in Rain Light Rain
7:53 PM 53.1 °F 52.0 °F 96% 30.17 in 3.0 mi NNW 5.8 mph - 0.05 in Rain Light Rain
8:00 PM 53.6 °F 51.8 °F 94% 30.17 in 3.0 mi NNW 6.9 mph - 0.00 in Rain Light Rain
8:13 PM 53.6 °F 51.8 °F 94% 30.18 in 3.0 mi NNW 6.9 mph - 0.00 in Rain Light Rain
8:30 PM 51.8 °F 51.8 °F 100% 30.18 in 2.5 mi NNW 6.9 mph - 0.00 in   Overcast
8:53 PM 52.0 °F 51.1 °F 97% 30.19 in 2.5 mi North 8.1 mph - 0.03 in Rain Light Rain
9:03 PM 51.8 °F 50.0 °F 94% 30.19 in 3.0 mi North 8.1 mph - 0.01 in Rain Light Rain
9:51 PM 50.0 °F 48.2 °F 94% 30.20 in 5.0 mi NNE 13.8 mph - 0.02 in Rain Light Rain
9:53 PM 50.0 °F 48.0 °F 93% 30.21 in 4.0 mi NNE 13.8 mph - 0.03 in Rain Light Rain
10:04 PM 50.0 °F 48.2 °F 94% 30.20 in 2.5 mi NNE 11.5 mph - 0.01 in Rain Light Rain
10:14 PM 48.2 °F 46.4 °F 93% 30.20 in 3.0 mi NNE 10.4 mph - 0.01 in Rain Light Rain
10:35 PM 48.2 °F 46.4 °F 93% 30.20 in 4.0 mi NNE 5.8 mph - 0.02 in   Overcast
10:53 PM 48.0 °F 46.9 °F 96% 30.21 in 5.0 mi NNE 6.9 mph - 0.02 in   Overcast
11:53 PM 48.0 °F 45.0 °F 89% 30.22 in 6.0 mi NNE 9.2 mph - N/A   Overcast